• In Österreich
  • Länderverzeichnis
  • Für 7 Tage
  • Wassertemperatur
  • Satellitenkarten
  • Wetterkarte
  • News
  • Widgets
  • user-avatar
    Anmelden

    Stündliche Wetter Artaschat

    Heute, 22 Oktober, Sonntag

    Zeit Temperatur Niederschläge Wind Luftdruck Luftfeuchtigkeit
    00:00 +6°C° 0 mm 1 m/S 600 mmHg 33%
    01:00 +6°C° 0 mm 1 m/S 600 mmHg 34%
    02:00 +5°C° 0 mm 1 m/S 599 mmHg 35%
    03:00 +5°C° 0 mm 1 m/S 599 mmHg 34%
    04:00 +3°C° 0 mm 2 m/S 599 mmHg 34%
    05:00 +3°C° 0 mm 2 m/S 599 mmHg 35%
    06:00 +3°C° 0 mm 2 m/S 599 mmHg 35%
    07:00 +5°C° 0 mm 2 m/S 600 mmHg 32%
    08:00 +7°C° 0 mm 2 m/S 600 mmHg 28%
    09:00 +9°C° 0 mm 2 m/S 601 mmHg 24%
    10:00 +10°C° 0 mm 2 m/S 601 mmHg 23%
    11:00 +11°C° 0 mm 3 m/S 601 mmHg 21%
    12:00 +12°C° 0 mm 3 m/S 602 mmHg 20%
    13:00 +13°C° 0 mm 4 m/S 601 mmHg 19%
    14:00 +13°C° 0 mm 4 m/S 601 mmHg 19%
    15:00 +13°C° 0 mm 4 m/S 601 mmHg 19%
    16:00 +12°C° 0 mm 4 m/S 600 mmHg 22%
    17:00 +10°C° 0 mm 4 m/S 600 mmHg 25%
    18:00 +9°C° 0 mm 3 m/S 600 mmHg 27%
    19:00 +8°C° 0 mm 3 m/S 600 mmHg 29%
    20:00 +8°C° 0 mm 3 m/S 599 mmHg 31%
    21:00 +7°C° 0 mm 3 m/S 599 mmHg 33%
    22:00 +7°C° 0 mm 3 m/S 599 mmHg 34%
    23:00 +5°C° 0 mm 3 m/S 599 mmHg 36%

    Morgen, 23 Oktober, Montag

    Zeit Temperatur Niederschläge Wind Luftdruck Luftfeuchtigkeit
    00:00 +6°C° 0 mm 2 m/S 599 mmHg 37%
    01:00 +5°C° 0 mm 2 m/S 599 mmHg 38%
    02:00 +5°C° 0 mm 2 m/S 599 mmHg 40%
    03:00 +4°C° 0 mm 2 m/S 599 mmHg 41%
    04:00 +4°C° 0 mm 2 m/S 599 mmHg 42%
    05:00 +4°C° 0 mm 2 m/S 599 mmHg 44%
    06:00 +3°C° 0 mm 2 m/S 599 mmHg 45%
    07:00 +5°C° 0 mm 2 m/S 600 mmHg 40%
    08:00 +8°C° 0 mm 1 m/S 601 mmHg 35%
    09:00 +10°C° 0 mm 1 m/S 602 mmHg 30%
    10:00 +10°C° 0 mm 2 m/S 602 mmHg 28%
    11:00 +12°C° 0 mm 2 m/S 603 mmHg 26%
    12:00 +13°C° 0 mm 2 m/S 603 mmHg 23%
    13:00 +13°C° 0 mm 2 m/S 603 mmHg 23%
    14:00 +14°C° 0 mm 2 m/S 603 mmHg 22%
    15:00 +13°C° 0 mm 3 m/S 603 mmHg 22%
    16:00 +12°C° 0 mm 2 m/S 602 mmHg 25%
    17:00 +10°C° 0 mm 2 m/S 602 mmHg 28%
    18:00 +8°C° 0 mm 2 m/S 601 mmHg 32%
    19:00 +8°C° 0 mm 2 m/S 602 mmHg 33%
    20:00 +8°C° 0 mm 1 m/S 602 mmHg 35%
    21:00 +7°C° 0 mm 1 m/S 602 mmHg 36%
    22:00 +7°C° 0 mm 1 m/S 601 mmHg 37%
    23:00 +7°C° 0 mm 1 m/S 601 mmHg 37%

    übermorgen, 24 Oktober, Dienstag

    Zeit Temperatur Niederschläge Wind Luftdruck Luftfeuchtigkeit
    00:00 +6°C° 0 mm 1 m/S 601 mmHg 38%
    01:00 +6°C° 0 mm 1 m/S 601 mmHg 39%
    02:00 +5°C° 0 mm 1 m/S 601 mmHg 39%
    03:00 +5°C° 0 mm 1 m/S 601 mmHg 40%
    04:00 +5°C° 0 mm 1 m/S 601 mmHg 41%
    05:00 +4°C° 0 mm 1 m/S 601 mmHg 41%
    06:00 +4°C° 0 mm 1 m/S 600 mmHg 41%
    07:00 +6°C° 0 mm 1 m/S 602 mmHg 36%
    08:00 +9°C° 0 mm 1 m/S 603 mmHg 31%
    09:00 +11°C° 0 mm 1 m/S 604 mmHg 25%
    10:00 +12°C° 0 mm 2 m/S 604 mmHg 23%
    11:00 +13°C° 0 mm 2 m/S 604 mmHg 21%
    12:00 +13°C° 0 mm 3 m/S 605 mmHg 19%
    13:00 +14°C° 0 mm 3 m/S 605 mmHg 19%
    14:00 +14°C° 0 mm 3 m/S 605 mmHg 19%
    15:00 +14°C° 0 mm 4 m/S 605 mmHg 19%
    16:00 +12°C° 0 mm 3 m/S 604 mmHg 23%
    17:00 +12°C° 0 mm 2 m/S 604 mmHg 26%
    18:00 +9°C° 0 mm 2 m/S 603 mmHg 30%
    19:00 +8°C° 0 mm 2 m/S 603 mmHg 32%
    20:00 +8°C° 0 mm 2 m/S 603 mmHg 33%
    21:00 +7°C° 0 mm 2 m/S 604 mmHg 35%
    22:00 +7°C° 0 mm 2 m/S 603 mmHg 36%
    23:00 +8°C° 0 mm 1 m/S 603 mmHg 37%

    25 Oktober, Mittwoch

    Zeit Temperatur Niederschläge Wind Luftdruck Luftfeuchtigkeit
    00:00 +7°C° 0 mm 1 m/S 603 mmHg 38%
    01:00 +7°C° 0 mm 1 m/S 603 mmHg 38%
    02:00 +7°C° 0 mm 1 m/S 603 mmHg 39%
    03:00 +7°C° 0 mm 1 m/S 603 mmHg 39%
    04:00 +6°C° 0 mm 1 m/S 603 mmHg 40%
    05:00 +6°C° 0 mm 1 m/S 603 mmHg 41%
    06:00 +6°C° 0 mm 1 m/S 603 mmHg 42%
    07:00 +8°C° 0 mm 1 m/S 604 mmHg 37%
    08:00 +10°C° 0 mm 1 m/S 605 mmHg 32%
    09:00 +13°C° 0 mm 2 m/S 607 mmHg 26%
    10:00 +14°C° 0 mm 2 m/S 607 mmHg 25%
    11:00 +15°C° 0 mm 2 m/S 607 mmHg 23%
    12:00 +16°C° 0 mm 3 m/S 607 mmHg 21%
    13:00 +17°C° 0 mm 3 m/S 607 mmHg 21%
    14:00 +17°C° 0 mm 3 m/S 607 mmHg 20%
    15:00 +17°C° 0 mm 3 m/S 606 mmHg 19%
    16:00 +14°C° 0 mm 3 m/S 606 mmHg 23%
    17:00 +13°C° 0 mm 2 m/S 605 mmHg 26%
    18:00 +10°C° 0 mm 2 m/S 605 mmHg 29%
    19:00 +10°C° 0 mm 2 m/S 605 mmHg 30%
    20:00 +9°C° 0 mm 2 m/S 605 mmHg 31%
    21:00 +9°C° 0 mm 2 m/S 605 mmHg 32%
    22:00 +9°C° 0 mm 2 m/S 604 mmHg 33%
    23:00 +8°C° 0 mm 2 m/S 604 mmHg 33%

    26 Oktober, Donnerstag

    Zeit Temperatur Niederschläge Wind Luftdruck Luftfeuchtigkeit
    00:00 +8°C° 0 mm 2 m/S 604 mmHg 34%
    01:00 +8°C° 0 mm 2 m/S 603 mmHg 35%
    02:00 +7°C° 0 mm 2 m/S 603 mmHg 36%
    03:00 +7°C° 0 mm 2 m/S 603 mmHg 36%
    04:00 +7°C° 0 mm 2 m/S 603 mmHg 38%
    05:00 +7°C° 0 mm 2 m/S 602 mmHg 39%
    06:00 +6°C° 0 mm 2 m/S 602 mmHg 40%
    07:00 +9°C° 0 mm 2 m/S 603 mmHg 36%
    08:00 +12°C° 0 mm 2 m/S 604 mmHg 31%
    09:00 +14°C° 0 mm 2 m/S 605 mmHg 26%
    10:00 +14°C° 0 mm 3 m/S 605 mmHg 24%
    11:00 +17°C° 0 mm 4 m/S 605 mmHg 22%
    12:00 +17°C° 0 mm 5 m/S 605 mmHg 19%
    13:00 +17°C° 0 mm 5 m/S 605 mmHg 19%
    14:00 +17°C° 0 mm 5 m/S 604 mmHg 18%
    15:00 +19°C° 0 mm 6 m/S 604 mmHg 18%
    16:00 +16°C° 0 mm 5 m/S 604 mmHg 21%
    17:00 +14°C° 0 mm 4 m/S 603 mmHg 23%
    18:00 +12°C° 0 mm 3 m/S 602 mmHg 26%
    19:00 +11°C° 0 mm 3 m/S 602 mmHg 28%
    20:00 +10°C° 0 mm 3 m/S 602 mmHg 31%
    21:00 +10°C° 0 mm 3 m/S 602 mmHg 33%
    22:00 +9°C° 0 mm 3 m/S 602 mmHg 34%
    23:00 +9°C° 0 mm 3 m/S 602 mmHg 36%

    27 Oktober, Freitag

    Zeit Temperatur Niederschläge Wind Luftdruck Luftfeuchtigkeit
    00:00 +8°C° 0 mm 3 m/S 601 mmHg 38%
    01:00 +8°C° 0 mm 3 m/S 601 mmHg 40%
    02:00 +7°C° 0 mm 3 m/S 601 mmHg 42%
    03:00 +7°C° 0 mm 3 m/S 601 mmHg 44%
    04:00 +5°C° 0 mm 3 m/S 601 mmHg 46%
    05:00 +5°C° 0 mm 3 m/S 601 mmHg 49%
    06:00 +5°C° 0 mm 3 m/S 601 mmHg 51%
    07:00 +7°C° 0 mm 3 m/S 602 mmHg 46%
    08:00 +9°C° 0 mm 3 m/S 603 mmHg 42%
    09:00 +11°C° 0 mm 3 m/S 603 mmHg 37%
    10:00 +12°C° 0 mm 3 m/S 604 mmHg 33%
    11:00 +13°C° 0 mm 3 m/S 604 mmHg 30%
    12:00 +14°C° 0 mm 3 m/S 604 mmHg 26%
    13:00 +14°C° 0 mm 3 m/S 604 mmHg 25%
    14:00 +14°C° 0 mm 4 m/S 603 mmHg 24%
    15:00 +14°C° 0 mm 4 m/S 603 mmHg 23%
    16:00 +13°C° 0 mm 3 m/S 603 mmHg 26%
    17:00 +11°C° 0 mm 3 m/S 602 mmHg 29%
    18:00 +10°C° 0 mm 2 m/S 602 mmHg 33%
    19:00 +9°C° 0 mm 2 m/S 602 mmHg 33%
    20:00 +8°C° 0 mm 2 m/S 602 mmHg 33%
    21:00 +8°C° 0 mm 2 m/S 602 mmHg 34%
    22:00 +7°C° 0 mm 2 m/S 602 mmHg 35%
    23:00 +7°C° 0 mm 2 m/S 601 mmHg 35%
    Mehr zeigen